STARLINK-1692 (46542 NORAD) Tracking and Keplerian Element Data

This shows tracking and keplerian element data for the satellite.

Feedback or suggestion? Click here.




ElementValue
Catalog46542
NameSTARLINK-1692
Epoch Orbit440
Epoch Day303.25001157
Epoch Year2020
RAAN330.0949
Inclination53.0016
Eccentricity0.0001492
Argument of Perigee64.2701
Mean Anonmoly175.6322
Mean Motion15.6273528
Decay Rate-0.00026524
L11 46542U 20070L 20303.25001157 -.00026524 00000-0 -28496-3 0 9992
L22 46542 53.0016 330.0949 0001492 64.2701 175.6322 15.62735280 4405

Live tracking and technical data element details for STARLINK-1692 (NORAD 46542). STARLINK-1692 can be tracked NOW for your location showing map with azimuth and elevation plus other details from your city location.

Track the satellite on the map from your city or location and see movement details for azimuth, elevation, latitude, longitude, range, height, and movement on the map or in text.







IsCatalogInMostPopularTable: catalog: 46542, numindb: 3
Update: records affected: 1



GetName: 46542 STARLINK-1692

Hit Count: updated at: Fri, 30 Oct 2020 02:13:16 GMT